SL-8 DEB, 1478

Orbit data source: Space-Track

SL-8 DEB, 1478 is space debris in LEO originally from a launch on Mon, 15 Mar 1965 UTC launched from the Tyuratam Missile And Space Complex (TTMTR). Debris objects in space refer to the collection of defunct objects orbiting the Earth. Examples of debris include non-operational satellites, rocket bodies, and fragments generated from explosions, collisions, or faulty payload assembly.

Loading next visibility...
SL-8 DEB details
Identifier
1478, 1965-020BC
Orbit
LEO
Last TLE update5 hours ago
Origin
Flag of CISRVSN (CIS)
ManufacturerUnknown
MissionSpacecraft
Bus & MotorUnknown
MassUnknown
Launch date (UTC)
1965-03-15 (60 years ago)
Launch vehicleUnknown
Launch site
Tyuratam Missile And Space Complex (TTMTR)
Object type
Payload
Rocket body
Debris
Shape & HBRUnknown
Radar Cross SectionMedium (>0.1 m² and <1 m²)

Expand to show TLE details & history

TLE from 5 hours ago
0 SL-8 DEB
1 01478U 65020BC  25018.57908891  .00002189  00000-0  10782-2 0  9996
2 01478  56.0751 233.0314 0605905 113.7043 252.8675 13.52724933855143
Epoch: 2025-01-18T13:53Z
Definitive object data (Epoch: 2025-01-18T13:53:53.281Z)
Latitude-0.00006°
Longitude-93.66699°
Altitude1,220.425 km
Speed7.168 km/s
True Right ascension15h 32m 07s
True Declination0° 00' 00"
Sunlit
Object was in daylight at TLE epoch
Visualization TLE readout
Latitude-54.71897°
Longitude156.76753°
Altitude1,442.162 km
Speed6.965 km/s
Apparent Right ascension07h 52m 49s
Apparent Declination-48° 00' 59"
Sunlit
Object is in daylight
Visualization observer readout
Local Sidereal Time19:33:22
Azimuth201.692° SSW
Elevation-81.182°
Doppler factor1
Orbital elements
Apogee altitude1,512.864 km
Perigee altitude611.254 km
Semi-major axis7,440.196 km
Eccentricity0.0605905
Inclination56.0751°
RAAN233.0314°
Arg. of periapsis113.7043°
True anomaly246.39114°
Mean anomaly252.8675°
Eccentric anomaly249.61337°
Mean motion3.38195 °/min
BSTAR0.0010782
Orbital period106.45 mins
Loading maneuver chart data...
Loading historical data...
Loading historical data...
Loading historical data...
Loading historical data...
Loading historical data...
Loading historical data...
Loading historical data...

SL-8 DEB Visibility forecast

Observer location: undefined°, undefined

Span
Click to sort rows by Start time (UTC) header in descending order
Start Az.
Max El. time (UTC)
Max El. Az.
Max El.
End time (UTC)
End Az.
4 mins2025-01-18 19:33:09.834Z317.679° NNW2025-01-18 19:35:09.834Z343.183° N13.588°2025-01-18 19:37:09.834Z10.012° NNE
6 mins2025-01-18 23:17:09.834Z342.115° N2025-01-18 23:19:09.834Z22.459° NNE28.864°2025-01-18 23:23:09.834Z99.023° ESE
6 mins2025-01-19 01:08:09.834Z274.635° WNW2025-01-19 01:10:09.834Z228.866° WSW27.352°2025-01-19 01:14:09.834Z170.945° S
6 mins2025-01-19 14:52:09.834Z152.639° SSE2025-01-19 14:55:09.834Z119.474° SE18.06°2025-01-19 14:58:09.834Z85.296° E
10 mins2025-01-19 16:40:09.834Z228.3° WSW2025-01-19 16:45:09.834Z296.314° NW44.613°2025-01-19 16:50:09.834Z43.304° NE
5 mins2025-01-19 18:34:09.834Z301.255° NW2025-01-19 18:36:09.834Z328.863° NNW19.023°2025-01-19 18:39:09.834Z13.285° NNE
|